Location: Aulus
(42.7909°N, 1.3399°E)
Time: 18:22:29
(UTC+00:00)

Cosmos 2184 Rocket - Pass Details

Date: 19 May 2025
Orbit: 959 x 1000 km, 82.9° (Epoch: 22 June)

Event Time Altitude Azimuth Distance (km) Brightness Sun altitude
Rises 19:54:10 0° 355° (N) 3,677 7.7 -6.9°
Reaches altitude 10° 19:56:43 10° 359° (N) 2,731 6.9 -7.3°
Maximum altitude 20:02:55 62° 79° (E) 1,101 4.1 -8.2°
Drops below altitude 10° 20:09:08 10° 160° (SSE) 2,742 5.8 -9.1°
Enters shadow 20:10:19 - 162° (SSE) 3,177 6.2 -9.3°
